Powrót do katalogu

STARLINK-1465

AktywnyŁącznośćVLEO
NORAD 45731·PAYLOAD·🇺🇸 United States

Wystrzelony Jun 13, 2020 z Cape Canaveral Space Force Station

Loading…

Następne Przeloty (najbliższe 24 godziny)

TLE

ŚwieżeSource: CelesTrak SupGP

Epoka: Sep 15, 2026, 01:54 UTC

1 45731C 20038B   26258.07965278  .00120830  00000+0  55924-3 0  2589
2 45731  53.0405  11.5323 0002425 343.4733  74.5418 15.82704254    12

Śledź STARLINK-1465 w czasie rzeczywistym z AllMySat

Download on the App Store